Ketchikan, AK

8:10 AM AKST on November 15, 2018 (GMT -0900)
Ketchikan International

Weather History for PAKT - September, 2017

Change the Weather History Date:

Friday, September 1, 2017

  Actual Average Record
Temperature  
Mean Temperature 58 °F -  
Max Temperature 62 °F 62 °F 79 °F (1974)
Min Temperature 54 °F 50 °F 40 °F (1964)
Degree Days  
Heating Degree Days 8    
Growing Degree Days 8 (Base 50)    
Moisture  
Dew Point 54 °F    
Average Humidity 88    
Maximum Humidity 96    
Minimum Humidity 72    
Precipitation  
Precipitation 0.23 in - - ()
Sea Level Pressure  
Sea Level Pressure 30.01 in    
Wind  
Wind Speed 13 mph (SE)    
Max Wind Speed 22 mph    
Max Gust Speed 34 mph    
Visibility 9 miles    
Events Rain    
Averages and records for this station are not official NWS values.
T = Trace of Precipitation, MM = Missing Value Source: NWS Daily Summary

Daily Weather History Graph

Daily Weather History Graph

Search for Another Location

Airport or City:

Astronomy

Sep. 01, 2017 Rise Set
Actual Time 5:53 AM AKDT 7:38 PM AKDT
Civil Twilight 5:14 AM AKDT 8:17 PM AKDT
Nautical Twilight 4:26 AM AKDT 9:05 PM AKDT
Astronomical Twilight 3:30 AM AKDT 10:00 PM AKDT
Moon 5:28 PM AKDT (9/1) 12:52 AM AKDT (9/1)
Length of Visible Light 15h 02m
Length of Day
13h 45m
Waxing Gibbous, 81% of the Moon is Illuminated
Sep 1
Waxing Gibbous
Sep 5
Full
Sep 12
Last Quarter
Sep 19
New
Sep 27
First Quarter

Hourly Weather History & Observations

Time (AKDT) Temp. Dew Point Humidity Pressure Visibility Wind Dir Wind Speed Gust Speed Precip Events Conditions
12:06 AM 55.0 °F 53.1 °F 93% 29.92 in 3.0 mi SE 17.3 mph 23.0 mph 0.05 in Rain Rain
12:22 AM 55.9 °F 54.0 °F 93% 29.92 in 2.0 mi SE 20.7 mph 27.6 mph 0.14 in Rain Heavy Rain
12:38 AM 57.0 °F 54.0 °F 89% 29.92 in 3.0 mi SE 19.6 mph 34.5 mph 0.19 in Rain Rain
12:53 AM 57.0 °F 54.0 °F 89% 29.92 in 4.0 mi SE 21.9 mph 34.5 mph 0.21 in Rain Light Rain
1:14 AM 57.0 °F 55.0 °F 93% 29.92 in 6.0 mi SE 16.1 mph 33.4 mph 0.01 in Rain Light Rain
1:53 AM 57.0 °F 55.0 °F 93% 29.94 in 10.0 mi SE 15.0 mph - 0.02 in Rain Light Rain
2:04 AM 57.0 °F 55.0 °F 93% 29.94 in 10.0 mi SE 18.4 mph 27.6 mph 0.00 in Rain Light Rain
2:21 AM 57.0 °F 55.9 °F 96% 29.94 in 10.0 mi SE 13.8 mph - 0.00 in   Overcast
2:37 AM 57.0 °F 55.9 °F 96% 29.94 in 10.0 mi SE 11.5 mph - 0.00 in   Overcast
2:53 AM 57.0 °F 55.9 °F 96% 29.95 in 10.0 mi SE 9.2 mph - 0.00 in   Overcast
3:10 AM 57.0 °F 55.9 °F 96% 29.95 in 10.0 mi ESE 10.4 mph - N/A   Overcast
3:53 AM 57.0 °F 55.0 °F 93% 29.98 in 10.0 mi SE 6.9 mph - 0.00 in   Mostly Cloudy
4:00 AM 57.0 °F 55.0 °F 93% 29.97 in 10.0 mi SE 8.1 mph - N/A   Overcast
4:23 AM 57.0 °F 55.0 °F 93% 29.98 in 10.0 mi ESE 6.9 mph - N/A   Overcast
4:41 AM 57.0 °F 55.0 °F 93% 29.99 in 10.0 mi SE 6.9 mph - N/A   Overcast
4:53 AM 57.0 °F 55.0 °F 93% 30.00 in 10.0 mi SE 10.4 mph - N/A   Overcast
5:53 AM 55.9 °F 54.0 °F 93% 30.02 in 10.0 mi SE 4.6 mph - N/A   Overcast
6:05 AM 55.4 °F 53.6 °F 94% 30.02 in 10.0 mi SE 8.1 mph - N/A   Overcast
6:14 AM 55.4 °F 53.6 °F 94% 30.02 in 10.0 mi SSE 6.9 mph - N/A   Overcast
6:53 AM 55.4 °F 53.6 °F 94% 30.04 in 10.0 mi SE 8.1 mph - N/A   Overcast
7:53 AM 57.2 °F 53.6 °F 88% 30.05 in 10.0 mi SE 9.2 mph - N/A   Mostly Cloudy
8:53 AM 59.0 °F 53.6 °F 82% 30.05 in 10.0 mi SE 10.4 mph - N/A   Mostly Cloudy
9:53 AM 59.0 °F 53.6 °F 82% 30.07 in 10.0 mi SE 9.2 mph - N/A   Mostly Cloudy
10:53 AM 59.0 °F 53.6 °F 82% 30.08 in 10.0 mi SE 9.2 mph - N/A   Scattered Clouds
11:53 AM 60.8 °F 51.8 °F 72% 30.09 in 10.0 mi SE 15.0 mph - N/A   Overcast
12:53 PM 60.8 °F 51.8 °F 72% 30.09 in 10.0 mi SSE 12.7 mph - N/A   Mostly Cloudy
1:53 PM 60.8 °F 51.8 °F 72% 30.10 in 10.0 mi SE 10.4 mph - N/A   Mostly Cloudy
2:53 PM 60.8 °F 53.6 °F 77% 30.10 in 10.0 mi ESE 12.7 mph - N/A   Mostly Cloudy
3:53 PM 60.8 °F 51.8 °F 72% 30.09 in 10.0 mi SE 10.4 mph - N/A   Scattered Clouds
4:53 PM 60.1 °F 51.1 °F 72% 30.08 in 10.0 mi SE 8.1 mph - N/A   Scattered Clouds
5:53 PM 60.1 °F 52.0 °F 75% 30.07 in 10.0 mi ESE 9.2 mph - N/A   Partly Cloudy
6:53 PM 57.9 °F 52.0 °F 81% 30.06 in 10.0 mi SE 5.8 mph - N/A   Partly Cloudy
7:53 PM 55.9 °F 52.0 °F 87% 30.05 in 10.0 mi South 4.6 mph - N/A   Scattered Clouds
8:53 PM 55.0 °F 52.0 °F 89% 30.05 in 10.0 mi South 5.8 mph - N/A   Mostly Cloudy
9:53 PM 55.0 °F 52.0 °F 89% 30.04 in 10.0 mi South 4.6 mph - N/A   Overcast
10:53 PM 55.0 °F 53.1 °F 93% 30.03 in 10.0 mi Calm Calm - N/A   Mostly Cloudy
11:53 PM 54.0 °F 52.0 °F 93% 30.03 in 10.0 mi Calm Calm - N/A   Overcast